Date String (YYYY-MM-DD hh:mm:ss) UTC,Instrument flags,Ambient pressure (hPa),Sample flow (lpm),Bypass flow (lpm),Sample temperature (°C),Ambient temperature (°C),ASC tube jacket temperature (°C),LED temperature (°C),Box temperature (°C),Sample RH (%),Span deviation,Mass concentration (μg/m³),Mass concentration (μg/m³),Mass concentration (μg/m³)
DateTimeUTC,F1_M11,P_M11,Q1_M11,Q2_M11,T1_M11,T2_M11,T3_M11,T4_M11,T5_M11,U1_M11,ZSPAN_M11,X0_M11,X2_M11,X1_M11
2022-03-02 23:00:00,,0827.7,5.01,0.00,29.6,28.5,00.0,38.5,31.5,10.4,0000.0,0009.18,0003.76,0003.28
2022-03-02 23:01:00,,0827.7,5.00,0.00,29.6,28.6,00.0,38.5,31.5,10.5,0000.0,0009.00,0003.75,0003.29
2022-03-02 23:02:00,,0827.7,4.99,0.00,29.7,28.7,00.0,38.5,31.5,10.4,0000.0,0009.09,0003.76,0003.31
2022-03-02 23:03:00,,0827.7,4.99,0.00,29.7,28.7,00.0,38.6,31.5,10.5,0000.0,0008.92,0003.78,0003.33
2022-03-02 23:04:00,,0827.7,5.02,0.00,29.7,28.8,00.0,38.6,31.5,10.6,0000.0,0008.35,0003.85,0003.34
2022-03-02 23:05:00,,0827.7,4.99,0.00,29.8,28.9,00.0,38.6,31.6,10.6,-000.1,0008.45,0003.88,0003.35
2022-03-02 23:06:00,,0827.7,5.01,0.00,29.8,28.9,00.0,38.6,31.6,10.6,0000.5,0008.27,0003.88,0003.35
2022-03-02 23:07:00,,0827.7,4.99,0.00,29.8,29.0,00.0,38.6,31.7,10.6,0000.4,0007.80,0003.88,0003.36
2022-03-02 23:08:00,,0827.7,5.00,0.00,29.8,29.0,00.0,38.7,31.7,10.6,-000.9,0007.75,0003.86,0003.38
2022-03-02 23:09:00,,0827.7,5.00,0.00,29.9,29.0,00.0,38.7,31.7,10.8,-002.8,0007.67,0003.87,0003.40
2022-03-02 23:10:00,,0827.7,4.99,0.00,29.9,29.1,00.0,38.7,31.7,10.6,-003.3,0007.58,0003.86,0003.41
2022-03-02 23:11:00,,0827.7,4.99,0.00,29.9,29.1,00.0,38.7,31.8,10.7,-002.9,0007.42,0003.84,0003.41
2022-03-02 23:12:00,,0827.7,5.01,0.00,30.0,29.2,00.0,38.8,31.8,10.6,-002.7,0007.36,0003.87,0003.43
2022-03-02 23:13:00,,0827.7,4.98,0.00,30.0,29.0,00.0,38.8,31.7,10.4,-002.3,0007.35,0003.91,0003.46
2022-03-02 23:14:00,,0827.7,5.00,0.00,29.9,26.9,00.0,38.8,31.2,10.4,-002.4,0007.47,0003.95,0003.47
2022-03-02 23:15:00,,0827.7,5.02,0.00,29.6,25.3,00.0,38.7,30.8,10.5,-002.0,0007.51,0003.90,0003.46
2022-03-02 23:16:00,,0827.7,5.00,0.00,29.5,25.4,00.0,38.7,30.8,10.6,-001.1,0007.41,0003.85,0003.46
2022-03-02 23:17:00,,0827.7,4.99,0.00,29.4,25.9,00.0,38.6,30.8,10.8,-003.0,0007.41,0003.83,0003.46
2022-03-02 23:18:00,,0827.7,4.99,0.00,29.4,26.4,00.0,38.5,30.9,10.8,-003.6,0007.45,0003.84,0003.45
2022-03-02 23:19:00,,0827.7,5.01,0.00,29.4,26.9,00.0,38.5,31.0,10.7,-003.6,0007.47,0003.86,0003.43
2022-03-02 23:20:00,,0827.6,5.01,0.00,29.4,27.3,00.0,38.5,31.1,10.5,-003.3,0007.29,0003.84,0003.41
2022-03-02 23:21:00,,0827.6,5.00,0.00,29.4,27.6,00.0,38.5,31.1,10.3,-003.2,0007.24,0003.82,0003.38
2022-03-02 23:22:00,,0827.7,5.01,0.00,29.4,27.9,00.0,38.4,31.2,10.1,-003.4,0007.36,0003.77,0003.33
2022-03-02 23:23:00,,0827.6,4.99,0.00,29.5,28.1,00.0,38.4,31.2,10.1,-001.2,0007.32,0003.73,0003.28
2022-03-02 23:24:00,,0827.7,5.01,0.00,29.5,28.3,00.0,38.4,31.3,10.2,0007.0,0007.21,0003.68,0003.24
2022-03-02 23:25:00,,0827.7,4.99,0.00,29.5,28.4,00.0,38.4,31.3,10.1,0000.0,0006.80,0003.60,0003.19
2022-03-02 23:26:00,,0827.7,5.01,0.00,29.6,28.5,00.0,38.5,31.4,10.1,0000.0,0006.44,0003.56,0003.15
2022-03-02 23:27:00,,0827.7,4.99,0.00,29.6,28.6,00.0,38.5,31.4,10.0,0000.0,0006.61,0003.55,0003.12
2022-03-02 23:28:00,,0827.6,5.02,0.00,29.6,28.7,00.0,38.5,31.4,10.0,0000.0,0007.56,0003.53,0003.07
2022-03-02 23:29:00,,0827.7,4.98,0.00,29.7,28.8,00.0,38.5,31.5,09.9,0000.0,0007.55,0003.47,0003.00
2022-03-02 23:30:00,,0827.6,5.01,0.00,29.7,28.8,00.0,38.5,31.5,09.8,0000.0,0007.40,0003.42,0002.96
2022-03-02 23:31:00,,0827.7,4.99,0.00,29.7,28.8,00.0,38.6,31.5,09.7,0000.0,0007.30,0003.37,0002.91
2022-03-02 23:32:00,,0827.6,5.01,0.00,29.8,28.9,00.0,38.6,31.6,09.5,0000.0,0007.41,0003.31,0002.83
2022-03-02 23:33:00,,0827.7,5.00,0.00,29.8,29.0,00.0,38.6,31.6,09.4,0000.0,0007.44,0003.30,0002.78
2022-03-02 23:34:00,,0827.6,5.00,0.00,29.8,29.0,00.0,38.6,31.6,09.4,0000.0,0007.37,0003.27,0002.73
2022-03-02 23:35:00,,0827.7,5.01,0.00,29.8,29.0,00.0,38.6,31.7,09.4,0000.0,0007.27,0003.21,0002.65
2022-03-02 23:36:00,,0827.7,4.98,0.00,29.9,29.0,00.0,38.7,31.7,09.5,0000.0,0007.32,0003.19,0002.60
2022-03-02 23:37:00,,0827.7,5.01,0.00,29.9,29.1,00.0,38.7,31.7,09.5,0000.0,0007.85,0003.16,0002.56
2022-03-02 23:38:00,,0827.7,4.99,0.00,29.9,29.1,00.0,38.7,31.8,09.6,0000.0,0008.01,0003.12,0002.52
2022-03-02 23:39:00,,0827.6,5.00,0.00,30.0,29.1,00.0,38.8,31.8,09.7,0000.0,0007.33,0003.09,0002.51
2022-03-02 23:40:00,,0827.6,5.01,0.00,30.0,29.1,00.0,38.8,31.8,09.7,0000.0,0007.06,0003.07,0002.51
2022-03-02 23:41:00,,0827.6,4.99,0.00,30.0,29.2,00.0,38.8,31.8,09.7,0000.0,0007.18,0003.06,0002.51
2022-03-02 23:42:00,,0827.6,5.00,0.00,30.0,29.2,00.0,38.8,31.9,09.7,0000.0,0007.06,0003.04,0002.51
2022-03-02 23:43:00,,0827.6,5.01,0.00,30.0,29.3,00.0,38.9,31.9,09.6,0000.0,0006.48,0003.04,0002.53
2022-03-02 23:44:00,,0827.7,4.99,0.00,30.1,29.3,00.0,38.9,31.9,09.8,0000.0,0006.19,0003.00,0002.56
2022-03-02 23:45:00,,0827.6,5.01,0.00,30.1,29.3,00.0,38.9,31.9,09.9,0000.0,0006.21,0003.06,0002.61
2022-03-02 23:46:00,,0827.7,4.99,0.00,30.1,29.3,00.0,38.9,31.9,10.2,0000.0,0006.35,0003.12,0002.67
2022-03-02 23:47:00,,0827.6,5.00,0.00,30.1,29.4,00.0,38.9,32.0,10.1,0000.0,0006.55,0003.16,0002.71
2022-03-02 23:48:00,,0827.7,5.00,0.00,30.2,29.3,00.0,39.0,32.0,10.4,0000.0,0005.77,0003.20,0002.74
2022-03-02 23:49:00,,0827.6,5.00,0.00,30.1,27.6,00.0,39.0,31.6,10.5,0000.0,0005.23,0003.22,0002.77
2022-03-02 23:50:00,,0827.7,4.99,0.00,29.9,26.4,00.0,38.9,31.3,10.2,0000.0,0005.31,0003.21,0002.77
2022-03-02 23:51:00,,0827.6,5.00,0.00,29.8,26.6,00.0,38.9,31.2,10.1,0000.0,0005.84,0003.19,0002.72
2022-03-02 23:52:00,,0827.6,5.01,0.00,29.8,27.0,00.0,38.8,31.3,10.3,0000.0,0006.02,0003.17,0002.67
2022-03-02 23:53:00,,0827.6,4.99,0.00,29.7,27.4,00.0,38.8,31.3,10.3,0000.0,0005.94,0003.15,0002.64
2022-03-02 23:54:00,,0827.6,5.02,0.00,29.7,27.7,00.0,38.8,31.4,10.4,0000.0,0006.08,0003.15,0002.59
2022-03-02 23:55:00,,0827.7,4.99,0.00,29.7,28.0,00.0,38.8,31.4,10.2,0000.0,0006.23,0003.14,0002.56
2022-03-02 23:56:00,,0827.6,4.99,0.00,29.8,28.3,00.0,38.8,31.5,09.7,0000.0,0006.37,0003.05,0002.46
2022-03-02 23:57:00,,0827.6,5.01,0.00,29.8,28.5,00.0,38.8,31.5,09.7,0000.0,0006.12,0002.93,0002.35
2022-03-02 23:58:00,,0827.7,4.98,0.00,29.8,28.6,00.0,38.8,31.6,09.7,0000.0,0005.79,0002.81,0002.25
2022-03-02 23:59:00,,0827.6,5.01,0.00,29.9,28.8,00.0,38.8,31.6,09.8,0000.0,0005.53,0002.68,0002.15
